DMSP 5D-2 F13 DEB, 42327

Orbit data source: Space-Track

DMSP 5D-2 F13 DEB, 42327 is space debris in SSO originally from a launch on Fri, 24 Mar 1995 UTC launched from the Air Force Western Test Range (AFWTR). Debris objects in space refer to the collection of defunct objects orbiting the Earth. Examples of debris include non-operational satellites, rocket bodies, and fragments generated from explosions, collisions, or faulty payload assembly.

Loading next visibility...
Identifier
42327, 1995-015JV
Orbit
SSO
Country
Flag of USUS
Related business
Manufacturer
Unknown
Mission
Spacecraft
Bus & Motor
Unknown
Mass
Unknown
Launch date (UTC)
1995-03-24 (31 years ago)
Launch vehicle
Unknown
Launch site
Air Force Western Test Range (AFWTR)
Object type
Payload
Rocket body
Debris
Shape & HBR
Unknown shape, 0.1 m
Radar Cross Section
Small (<0.1 m²)

Expand to show TLE details & history
Last TLE update: 2 days ago

TLE from 2 days ago
0 DMSP 5D-2 F13 DEB
1 42327U 95015JV  26072.55472573  .00005319  00000-0  17030-2 0  9994
2 42327  98.6784 111.3229 0003434 263.9326  96.1470 14.39974728539947
Epoch: 2026-03-13T13:18Z
TLE epoch observation values (Epoch: 2026-03-13T13:18:48.303Z)
Latitude
-0.00003°
Longitude
100.43306°
Altitude
761.788 km
Speed
7.473 km/s
True Right ascension
07h 25m 17s
True Declination
0° 00' 00"
Sunlit
Object was in full shadow at epoch
Visualization orbit readout
Latitude
Unknown
Longitude
Unknown
Altitude
Unknown
Speed
Unknown
Apparent Right ascension
Unknown
Apparent Declination
Unknown
Sunlit
N/A
Visualization observer readout
Local Sidereal Time
11:50:38
Azimuth
Unknown
Elevation
Unknown
Doppler factor
Unknown
Orbital elements
Apogee altitude
758.162 km
Perigee altitude
753.263 km
Semi-major axis
7,133.849 km
Eccentricity
0.00034
Inclination
98.6784°
RAAN
111.3229°
Arg. of periapsis
263.9326°
True anomaly
96.18612°
Mean anomaly
96.147°
Eccentric anomaly
96.16656°
Mean motion
3.60211 °/min
Orbital period
99.94 mins
BSTAR
0.001703

Documentation

Showing up to 5 results
|